Select NOAA-NWS Forecast Office Text Products

(Product availability varies with seasons, forecast office, and weather.)

Regional Weather Roundup for Pendleton, OR

To Select Another NWS Office Click on Map or Choose from List

County Warning Area MAP
Select Forecast Office:   Select Product:  
000
ASUS46 KPDT 231110
RWRPDT
PENDLETON REGIONAL WEATHER ROUNDUP
NATIONAL WEATHER SERVICE PENDLETON OREGON
300 AM PST SUN JAN 23 2022

NOTE: FAIR INDICATES FEW OR NO CLOUDS BELOW 12,000 FEET WITH NO
SIGNIFICANT WEATHER AND/OR OBSTRUCTIONS TO VISIBILITY.

# INDICATES UNOFFICIAL STATION AND DATA

WAZ520-231210-
EAST SLOPES OF WASHINGTON CASCADES

CITY            SKY/WX      TMP DP  RH  WIND    PRES   REMARKS
#CLE ELUM HS    N/A         25  21  84  CALM    30.37S
#GLENWOOD       N/A         19  17  92  CALM    30.56F
#TROUT LAKE 1NE N/A         23  22  96  CALM    30.53F
#TROUT LAKE 1E  N/A         20  19  96  CALM    30.45F
$$

WAZ521-231210-
SIMCOE HIGHLANDS

CITY            SKY/WX      TMP DP  RH  WIND    PRES   REMARKS
#SATUS PASS DOT N/A         30  20  66  SW3     N/A
#CENTERVILLE 1SWN/A         N/A N/A N/A CALM    30.38F
#LYLE 6NE       N/A         29  28  96  CALM    30.53F
#PITT 4SE       N/A         28  26  92  CALM    30.54S
$$

WAZ026-231210-
KITTITAS VALLEY

CITY            SKY/WX      TMP DP  RH  WIND    PRES   REMARKS
ELLENSBURG AP   FAIR        15  10  80  CALM    30.45F
#ELLENSBURG CWU N/A         16  13  88  CALM    30.52S
#ELLENSBURG 3NE N/A         19  17  92  CALM    28.51S
#ELLENSBURG 1E  N/A         13  11  91  CALM    30.60F
$$

WAZ027-231210-
YAKIMA VALLEY

CITY            SKY/WX      TMP DP  RH  WIND    PRES   REMARKS
SUNNYSIDE AP    CLOUDY      29  28  96  NE3     30.54R FOG
YAKIMA AIRPORT  FAIR        17  14  88  MISG    30.50S
YAKIMA-VAGABOND FAIR        21  19  92  S3      30.46S
#MABTON         N/A         30  29  96  E1      30.52S
#NACHES 2SW     N/A         26  21  81  CALM    30.44F
#TERRACE HTS    N/A         22  20  92  CALM    30.54R
#TOPPENISH      N/A         29  28  96  CALM    30.47S
$$

WAZ028-231210-
LOWER COLUMBIA BASIN...WASHINGTON

CITY            SKY/WX      TMP DP  RH  WIND    PRES   REMARKS
PASCO           CLOUDY      32  30  92  NE5     30.57R
PROSSER AWOS    N/A         30  30  100 NE10    30.57R
RICHLAND AWOS   CLOUDY      32  31  96  CALM    30.57S
#BASIN CITY 5SW N/A         29  28  96  N1      30.52S
#BENTON CITY    N/A         29  28  96  CALM    30.48R
#CONNELL 5N     N/A         29  28  96  CALM    30.57S
#CONNELL 5NW    N/A         29  28  96  N1      30.53R
#ELTOPIA 6NW    N/A         29  28  96  CALM    29.49R
#KAHLOTUS       N/A         28  27  96  CALM    30.57S
#KENNEWICK 3S   N/A         29  27  92  CALM    30.57S
#SAGEMOOR 2W    N/A         29  28  96  N3      30.43R
#TOUCHET 2S     N/A         30  29  96  CALM    30.55F
$$

WAZ029-231210-
FOOTHILLS OF THE BLUES...WASHINGTON

CITY            SKY/WX      TMP DP  RH  WIND    PRES   REMARKS
WALLA WALLA AP  FRZFOG      28  28  100 CALM    30.49S VSB 1/2
#CLYDE 6NW      N/A         27  26  96  CALM    30.54F
#LOWDEN 2SE     N/A         30  28  92  CALM    30.50F
#PRESCOTT       N/A         33  31  92  CALM    30.54F
#WALLA WALLA 5E N/A         30  29  96  CALM    N/A
#WHITMAN MISSIONN/A         31  29  92  CALM    30.50S
$$

WAZ030-231210-
BLUE MOUNTAINS...WASHINGTON

CITY            SKY/WX      TMP DP  RH  WIND    PRES   REMARKS
$$

ORZ009-041-WAZ024-231210-
COLUMBIA RIVER GORGE

CITY            SKY/WX      TMP DP  RH  WIND    PRES   REMARKS
HOOD RIVER AP   CLOUDY      32  32  100 S3      30.51S FOG
THE DALLES AP   CLOUDY      37  33  85  SW3     30.53F
#CELILO DOT     N/A         35  32  89  NE1     N/A
#LYLE           N/A         35  33  92  NE3     30.55S
#RUFUS DOT      N/A         33  33  100 SE5     N/A

$$

ORZ510-231210-
NORTH CENTRAL OREGON

CITY            SKY/WX      TMP DP  RH  WIND    PRES   REMARKS
#ANTELOPE       N/A         26  22  85  CALM    30.40F
#COW CYN RST AREN/A         35  25  66  SW3     N/A
#DUFUR          N/A         26  25  96  CALM    30.51F
#DUFUR 9E       N/A         35  30  82  CALM    30.54F
#GRASS VALLEY 1SN/A         29  27  92  S5      30.42F
#KENT DOT       N/A         31  21  66  S3      N/A
#MORO SCHOOL    N/A         47  43  86  CALM    30.29S
#SHANIKO 5WSW   N/A         34  26  72  S7      N/A
#WAPANITIA AIRPON/A         25  23  92  CALM    30.53F
#WASCO DOT      N/A         29  29  100 N1      N/A
#WASCO 5NE      N/A         25  24  96  NE1     30.52F
$$

ORZ511-231210-
CENTRAL OREGON

CITY            SKY/WX      TMP DP  RH  WIND    PRES   REMARKS
BEND AIRPORT    FAIR        25  18  74  S7      30.45S
MADRAS AIRPORT  FAIR        25  23  92  CALM    30.46F
PRINEVILLE AP   FAIR        27  19  71  CALM    30.44F
REDMOND AIRPORT FAIR        23  16  74  CALM    30.43F
#ASHWOOD SCHOOL N/A         24  21  88  CALM    30.38F
#BEND-KIM LN    N/A         24  18  77  W1      30.47F
#CULVER         N/A         23  19  84  CALM    29.97F
#PRINEVILLE     N/A         27  20  74  CALM    30.64R

$$


ORZ509-231210-
EAST SLOPES OF OREGON CASCADES

CITY            SKY/WX      TMP DP  RH  WIND    PRES   REMARKS
SISTERS AWOS    N/A         19  16  88  CALM    30.36S
SUNRIVER AWOS   FAIR        18  16  92  CALM    30.48F
#BLUE BOX PASS  N/A         43  N/A N/A CALM    N/A
#CAMP SHERMAN   N/A         20  16  84  CALM    30.56S
#LA PINE DOT    N/A         20  13  74  CALM    N/A
#LAVA BUTTE DOT N/A         22  14  71  CALM    N/A
#SISTERS ODOT   N/A         20  16  84  CALM    N/A
#TUMALO 3W      N/A         38  18  44  SW2     30.32S
#WANOGA BUTTE D N/A         43  -8  11  N3      N/A

$$

ORZ044-231210-
LOWER COLUMBIA BASIN...OREGON

CITY            SKY/WX      TMP DP  RH  WIND    PRES   REMARKS
HERMISTON       FOG         31  31  100 NE6     30.53F VSB 3/4
#BOARDMAN SCHOOLN/A         32  31  96  CALM    30.53S
#ECHO 8SW       N/A         29  28  96  NE5     30.53S
#I-84 EX 198 DOTN/A         28  28  100 CALM    N/A
#UMATILLA       N/A         31  28  88  CALM    30.49S
$$

ORZ507-231210-
NORTHERN FOOTHILLS OF THE BLUES

CITY            SKY/WX      TMP DP  RH  WIND    PRES   REMARKS
PENDLETON AIRPT FRZFOG      28  26  92  CALM    30.47F VSB 1/4
#ATHENA         N/A         25  24  96  CALM    30.57F
#CAYUSE         N/A         26  25  96  CALM    30.51S
#HELIX SCHOOL   N/A         25  24  96  CALM    30.53F
#HELIX 3N       N/A         26  24  92  CALM    30.43F
#HOLDMAN 6E     N/A         26  25  96  CALM    30.31F
#M-FREEWATER 5SEN/A         27  25  92  CALM    30.46S
#PDT SUNRIDGE   N/A         26  25  96  CALM    30.45S
#PENDLETON 6SE  N/A         26  25  96  CALM    30.47F
#TUTUILLA       N/A         26  24  92  NE1     30.55S
#UMAPINE 2E     N/A         30  27  88  CALM    30.56S

$$

ORZ508-231210-
SOUTHERN FOOTHILLS OF THE BLUES

CITY            SKY/WX      TMP DP  RH  WIND    PRES   REMARKS
LEXINGTON       FAIR        27  27  100 N5      30.49S
#AJAX           N/A         32  29  89  S1      30.42S
#HEPPNER EOC    N/A         33  27  78  CALM    30.43F
#HEPPNER 4NE    N/A         36  29  75  CALM    30.48F
#OLEX 4N        N/A         29  28  96  CALM    30.54S
#RUGGS 2SW      N/A         36  21  54  S7      30.52F

$$

ORZ502-503-231210-
BLUE MOUNTAINS

CITY            SKY/WX      TMP DP  RH  WIND    PRES   REMARKS
MEACHAM         FAIR        17  15  92  CALM    30.41F
#BATTLE MTN DOT N/A         25  16  68  S9      N/A
#LADD CYN SMT   N/A         22  22  100 CALM    N/A
#LADD CREEK ODOTN/A         24  23  96  W6      N/A
#N POWDER DOT   N/A         18  16  92  CALM    N/A
#TOLLGATE       N/A         29  20  69  CALM    30.36F
#TROY SCHOOL    N/A         26  24  92  CALM    30.45S
#WESTON 4E      N/A         35  24  64  CALM    30.45S
$$

ORZ505-231210-
JOHN DAY BASIN

CITY            SKY/WX      TMP DP  RH  WIND    PRES   REMARKS
JOHN DAY        FAIR        30  19  63  SE8     30.45F
#DAYVILLE SCHOOLN/A         25  21  84  CALM    30.41F
#MITCHELL 8NW   N/A         37  21  52  CALM    30.50F
#MONUMENT HS    N/A         23  19  84  CALM    30.44F
#MT. VERNON 5SE N/A         30  20  66  CALM    30.43F
$$

ORZ506-231210-
OCHOCO AND JOHN DAY HIGHLANDS

CITY            SKY/WX      TMP DP  RH  WIND    PRES   REMARKS
#BUCK CREEK DOT N/A         25  22  88  SE2     N/A
#HORSE RIDGE DO N/A         14   8  76  CALM    N/A
#KEYES SMT DOT  N/A         27  15  60  SE5     N/A
#PAULINA ODOT   N/A         23  22  96  CALM    N/A
#PRAIRIE CITY   N/A         21  14  74  CALM    30.43R
#SENECA 9NW     N/A         15  12  88  CALM    30.62F
$$

ORZ049-231210-
GRANDE RONDE VALLEY

CITY            SKY/WX      TMP DP  RH  WIND    PRES   REMARKS
LA GRANDE       FAIR        26  23  88  S6      30.50R
#COVE SCHOOL    N/A         25  22  88  CALM    30.45S
#ELGIN 1E       N/A         22  17  81  CALM    N/A
#IMBLER SCHOOL  N/A         26  23  88  E1      30.42S
#ISLAND CITY 4N N/A         33  32  96  CALM    30.40S
#LADD CYN DOT   N/A         26  25  96  S18G28  N/A    WCI 13
#UNION 1S       N/A         28  25  88  S15     30.61F WCI 16
$$

ORZ050-231210-
WALLOWA COUNTY

CITY            SKY/WX      TMP DP  RH  WIND    PRES   REMARKS
JOSEPH AIRPORT  FAIR        24  15  68  MISG    30.43S
#ENTERPRISE HS  N/A         21  17  84  CALM    30.52R
#JOSEPH 3N      N/A         18  11  74  CALM    30.42R
#LOSTINE 3SE    N/A         16  13  88  CALM    30.49S
#MT HOWARD 8000 N/A         34  -1  22  N7      30.35F



$$

Previous Regional Weather Roundups may be found at
NWS Pendleton, OR (PDT) Office Regional Weather Roundups.
(Click 'Previous Version' there to view past versions successively.
Some may differ only in time posted.)

San Juan, PRHonolulu, HI Lake Charles, LA Pueblo, CO Corpus Christi, TX St. Louis, MO Reno, NV Raleigh, NC  Newport/Morehead City, NC Dodge City, KS Houston/Galveston, TX San Joaquin Valley/Hanford, CA Louisville, KY Fort Worth, TX Pittsburgh, PA Austin/San Antonio, TX Sacramento, CA Jackson, MS Phoenix, AZ Northern Indiana, IN Flagstaff, AZ Tallahassee, FL Springfield, MO Riverton, WY Blacksburg, VA Sioux Falls, SD El Paso Area, NM Columbia, SC Wilmington, NC Greenville-Spartanburg, SC Eureka, CA Midland/Odessa, TX Tucson, AZ Goodland, KS Huntsville, AL Amarillo, TX Norman, OK Lubbock, TX Marquette, MI Little Rock, AR Pendleton, OR Missoula, MT Binghamton, NY Boston, MA Green Bay, WI Billings, MT Baltimore/Washington San Diego, CA Tampa Bay, FL Morristown, TN Twin Cities, MN Brownsville, TX Portland, OR Des Moines, IA Memphis, TN Pocatello, ID San Angelo, TX Jacksonville, FL Aberdeen, SD Quad Cities, IA/IL Charleston, SC New Orleans/Baton Rouge, LA Peachtree City, GA Shreveport, LA Grand Rapids, MI Medford, OR Albany, NY Wichita, KS Gray/Portland, ME Spokane, WA Boise, ID Denver/Boulder, CO Great Falls, MT Caribou, ME Key West, FL Miami-South Florida, FL New York City/Upton, NY Melbourne, FL Hastings, NE Paducah, KY Glasgow, MT Bismarck, ND Charleston WV Omaha/Valley, NE Buffalo, NY Jackson, KY Kansas City/Pleasant Hill, MO Gaylord, MI Cheyenne, WY Grand Forks, ND Detroit/Pontiac, MI Central Illinois, IL Burlington, VT Salt Lake City, UT Topeka, KS Nashville, TN Milwaukee/Sullivan, WI Albuquerque, NM Las Vegas, NV Wakefield, VA La Crosse, WI Birmingham, AL Los Angeles/Oxnard, CA Chicago, IL Seattle, WA Rapid City, SD Indianapolis, IN Philadelphia/Mount Holly, PA Mobile/Pensacola State College, PA Cleveland, OH Elko, NV Wilmington, OH Grand Junction, CO North Platte, NE Tulsa, OK San Francisco/Monterey Bay Area, CA Duluth, MN Anchorage, AK Fairbanks, AK Juneau, AK Tiyan, GU

Products Courtesy of NOAA-NWS
NWS Information Parsing Script by Ken True at Saratoga Weather - WFO and Products Scripts by SE Lincoln Weather.
Mapping by Curly at Michiana Weather and by Tom at My Mishawaka Weather.